Regional Weather Roundup
Issued by NWS Goodland, KS

Home | Current Version | Previous Version | Graphics & Text | Print | Product List | Glossary On
Versions: 1 2 3 4 5 6 7 8 9 10 11 12 13 14 15 16 17 18 19 20 21 22 23 24 25 26 27 28 29 30 31 32 33 34 35 36 37 38 39 40 41 42 43 44 45 46 47 48 49 50
000
ASUS43 KGLD 301508
RWRGLD

GOODLAND FORECAST AREA HOURLY WEATHER ROUNDUP
NATIONAL WEATHER SERVICE GOODLAND KS
800 AM MST FRI JAN 30 2015

...OFFICIAL OBSERVATIONS...

CITY           SKY/WX    TMP DP  RH WIND       PRES   REMARKS
GOODLAND KS    CLOUDY    33  25  72 S17       30.30F
HILL CITY KS   CLOUDY    26  20  77 CALM      30.42F
IMPERIAL NEB   CLOUDY    29  22  75 SE9       30.29F
MCCOOK NEB     CLOUDY    27  21  78 CALM      30.36F
AKRON CO       CLOUDY    31  25  78 S7        30.20F
BURLINGTON CO  CLOUDY    37  26  64 S18       30.25F
LIMON CO       CLOUDY    31  25  78 SE10      30.22F
$$

...UNOFFICIAL OBSERVATIONS...

CITY           SKY/WX    TMP DP  RH WIND       PRES   REMARKS
COLBY KS       CLOUDY    36  28  75 S12       30.34F
NORTON KS      SUNNY     28  21  74 S6        30.39S
YUMA CO          N/A     28  24  83 CALM        N/A
$$


USA.gov is the U.S. government's official web portal to all federal, state and local government web resources and services.